Torna al catalogo

STARLINK-37053

AttivoComunicazioniSSO
NORAD 68159·PAYLOAD·🇺🇸 United States

Lanciato Mar 13, 2026 da Vandenberg Space Force Base

Loading…

Prossimi Passaggi (prossime 24 ore)

TLE

AggiornatoSource: CelesTrak SupGP

Epoca: Sep 15, 2026, 02:44 UTC

1 68159C 26049T   26258.11437500 -.00035402  00000+0 -10990-2 0  2588
2 68159  97.2835 278.1497 0001291  88.6421 345.5421 15.33456561    19

Traccia STARLINK-37053 in tempo reale con AllMySat

Download on the App Store